EW6460 Weather Reports


time (UTC)temp
C
wind
direction
speed
KPH
gust
KPH
rain 1hr
cm
rain 24hr
cm
rain mn
cm
humidity
%
barometer
mb
20260507004506 16 151 0.0 8.0 0.00 0.00 0.00 85 1011.2
20260507003035 16 152 0.0 3.2 0.00 0.00 0.00 85 1010.5
20260507001510 16 151 0.0 3.2 0.00 0.00 0.00 85 1010.5
20260507000004 16 151 0.0 9.7 0.00 0.00 0.00 85 1010.3
20260506234538 16 151 0.0 9.7 0.00 0.00 0.00 85 1010.2
20260506233016 16 151 0.0 4.8 0.00 0.00 0.00 85 1010.3
20260506231540 16 151 1.6 6.4 0.00 0.00 0.00 84 1009.9
20260506230036 16 150 1.6 8.0 0.00 0.00 0.00 84 1010.0
20260506224509 16 151 0.0 11.3 0.00 0.00 0.00 84 1010.0
20260506223042 16 151 0.0 8.0 0.00 0.00 0.00 83 1009.8
20260506221600 17 150 1.6 12.9 0.00 0.00 0.00 82 1009.8
20260506220036 17 150 3.2 12.9 0.00 0.00 0.00 82 1009.6
20260506214508 17 151 4.8 12.9 0.00 0.00 0.00 83 1009.7
20260506213037 17 151 0.0 14.5 0.00 0.00 0.00 83 1009.5
20260506211607 17 150 1.6 17.7 0.00 0.00 0.00 82 1009.3
20260506210052 18 151 1.6 11.3 0.00 0.00 0.00 82 1009.5
20260506204558 19 151 3.2 16.1 0.00 0.00 0.00 80 1009.6
20260506203028 18 150 1.6 11.3 0.00 0.00 0.00 83 1009.4
20260506201533 20 151 6.4 16.1 0.00 0.00 0.00 79 1009.8
20260506200010 20 151 1.6 22.5 0.00 0.00 0.00 82 1009.6
20260506194558 20 151 3.2 16.1 0.00 0.00 0.00 81 1009.3
20260506194506 20 150 3.2 16.1 0.00 0.00 0.00 80 1009.4
20260506193048 20 151 3.2 11.3 0.00 0.00 0.00 79 1009.3
20260506191531 21 151 3.2 17.7 0.00 0.00 0.00 80 1009.3
20260506190059 23 151 1.6 12.9 0.00 0.00 0.00 76 1009.2
20260506184535 26 150 1.6 11.3 0.00 0.00 0.00 69 1009.3
20260506183050 27 150 0.0 3.2 0.00 0.00 0.00 68 1009.1
20260506181517 26 149 0.0 1.6 0.00 0.00 0.00 70 1008.9
20260506180050 26 150 0.0 1.6 0.00 0.00 0.00 69 1009.1
20260506174520 26 150 0.0 4.8 0.00 0.00 0.00 72 1008.9
20260506173049 25 150 0.0 3.2 0.00 0.00 0.00 72 1008.9
20260506171520 23 149 0.0 3.2 0.00 0.00 0.00 76 1009.1
20260506170100 22 150 0.0 3.2 0.00 0.00 0.00 80 1009.1
20260506164515 20 149 0.0 4.8 0.00 0.00 0.00 82 1009.5
20260506163009 19 150 0.0 6.4 0.00 0.00 0.00 84 1009.5
20260506161544 18 150 1.6 12.9 0.00 0.00 0.00 87 1009.9
20260506160030 19 150 6.4 27.4 0.00 0.00 0.00 85 1010.7
20260506154516 21 150 0.0 8.0 0.00 0.00 0.00 82 1009.6
20260506153009 24 149 0.0 0.0 0.00 0.00 0.00 88 1009.2
20260506151540 24 150 0.0 1.6 0.00 0.00 0.00 87 1008.5
20260506150057 24 149 0.0 0.0 0.00 0.00 0.00 87 1008.6
20260506144531 24 149 0.0 3.2 0.00 0.00 0.00 88 1008.2
20260506143053 23 150 0.0 1.6 0.00 0.00 0.00 90 1008.2
20260506141517 23 151 0.0 4.8 0.00 0.00 0.00 92 1007.5
20260506140051 23 151 0.0 0.0 0.00 0.00 0.00 93 1008.0
20260506134517 22 150 0.0 0.0 0.00 0.00 0.00 93 1007.6
20260506133047 22 150 0.0 0.0 0.00 0.00 0.00 93 1007.3
20260506131517 22 151 0.0 3.2 0.00 0.00 0.00 94 1007.2
20260506130037 22 151 0.0 1.6 0.00 0.00 0.00 94 1007.0
20260506124512 22 150 0.0 0.0 0.00 0.00 0.00 95 1006.8
20260506123041 22 150 0.0 0.0 0.00 0.00 0.00 94 1006.8
20260506121520 22 150 0.0 0.0 0.00 0.00 0.00 94 1006.9
20260506120109 22 150 0.0 0.0 0.00 0.00 0.00 94 1006.9
20260506114512 22 150 0.0 0.0 0.00 0.00 0.00 94 1006.8
20260506113039 22 150 0.0 0.0 0.00 0.00 0.00 94 1006.8
20260506111521 22 151 0.0 0.0 0.00 0.00 0.00 94 1006.9
20260506110025 22 150 0.0 0.0 0.00 0.00 0.00 94 1006.7
20260506104556 22 150 0.0 1.6 0.00 0.00 0.00 94 1006.6
20260506103036 22 151 0.0 3.2 0.00 0.00 0.00 94 1006.5
20260506101559 22 149 0.0 6.4 0.00 0.00 0.00 94 1006.3
20260506101502 22 151 0.0 6.4 0.00 0.00 0.00 94 1006.3
20260506100025 22 150 1.6 9.7 0.00 0.00 0.00 95 1006.1
20260506094557 22 150 0.0 9.7 0.00 0.00 0.00 95 1006.0
20260506093026 22 151 1.6 8.0 0.00 0.00 0.00 95 1005.9
20260506091545 22 150 1.6 9.7 0.00 0.00 0.00 94 1005.6
20260506090019 22 150 1.6 9.7 0.00 0.00 0.00 93 1005.6
20260506084547 22 150 1.6 8.0 0.00 0.00 0.00 93 1005.5
20260506083020 22 150 1.6 11.3 0.00 0.00 0.00 93 1005.6
20260506081553 22 151 4.8 9.7 0.00 0.00 0.00 93 1005.6
20260506073007 22 151 1.6 12.9 0.00 0.00 0.00 91 1006.0
20260506071555 22 150 3.2 11.3 0.00 0.00 0.00 91 1006.0
20260506061602 23 150 3.2 9.7 0.00 0.00 0.00 91 1006.0
20260506044556 23 149 3.2 9.7 0.00 0.00 0.00 91 1006.5
20260506043029 23 150 1.6 9.7 0.00 0.00 0.00 91 1006.3
20260506041556 23 149 0.0 6.4 0.00 0.00 0.00 91 1006.3
20260506040028 23 150 0.0 6.4 0.00 0.00 0.00 91 1006.0
20260506034552 23 151 0.0 8.0 0.00 0.00 0.00 91 1005.7
20260506033028 23 150 0.0 3.2 0.00 0.00 0.00 90 1005.8
20260506031603 23 150 0.0 4.8 0.00 0.00 0.00 89 1005.5
20260506030029 23 150 1.6 8.0 0.00 0.00 0.00 88 1005.3
20260506024550 24 151 1.6 9.7 0.00 0.00 0.00 87 1005.2
20260506023022 24 151 0.0 1.6 0.00 0.00 0.00 86 1004.9
20260506021554 24 150 0.0 6.4 0.00 0.00 0.00 86 1004.6
20260506020020 24 150 0.0 4.8 0.00 0.00 0.00 85 1004.3
20260506014512 25 150 0.0 4.8 0.00 0.00 0.00 84 1004.2
20260506013046 25 149 1.6 6.4 0.00 0.00 0.00 82 1003.9
20260506011528 25 149 0.0 4.8 0.00 0.00 0.00 80 1004.0
20260506010101 26 149 0.0 4.8 0.00 0.00 0.00 78 1004.0